[[{"header":{"parameterUnit":"m.s-1","parameterCategory":1,"la1":30.2991,"la2":30.254,"lo1":-89.0895,"lo2":-89.0444,"dy":0.0017,"dx":0.0017,"nx":28,"ny":28,"refTime":"2023-11-04T09:00:00:Z","depth":0,"parameterNumber":2,"parameterNumberName":"U-component_of_WINDS"},"data":[0,0,0,0,0,0,0,0,0,0,0,0,0,0,0,0,0,0,0,0,0,0,0,0,0,0,0,0,0,0,0,0,0,0,0,0,0,0,0,0,0,0,0,0,0,0,0,0,0,0,0,0,0,0,0,0,0,0,-0.091,-0.0911,0,-0.0963,-0.0964,-0.0965,-0.0945,-0.0944,-0.0943,-0.0942,-0.1,-0.1003,-0.1006,0,0,0,0,0,0,0,0,0,0,0,0,0,-0.0795,-0.0797,-0.091,-0.0911,-0.0912,-0.0963,-0.0964,-0.0965,-0.0945,-0.0944,-0.0942,-0.0941,-0.0999,-0.1003,-0.1006,0,0,0,0,0,0,0,0,0,0,0,0,0,-0.0847,-0.0798,-0.091,-0.0908,-0.0908,-0.0963,-0.0964,-0.0965,-0.0946,-0.0944,-0.0942,-0.094,-0.0998,-0.1002,-0.1006,-0.1068,0,0,-0.1019,-0.102,0,0,0,0,0,0,0,0,-0.0844,-0.0851,-0.0908,-0.0908,-0.0909,-0.0946,-0.0945,-0.1,-0.0946,-0.0932,-0.0942,-0.0939,-0.0984,-0.0989,-0.1003,-0.1071,-0.1073,-0.1019,-0.1021,-0.1023,-0.1024,0,0,0,0,0,0,0,-0.084,-0.0848,-0.0931,-0.0909,-0.0909,-0.0905,-0.0911,-0.0955,-0.0968,-0.0933,-0.0931,-0.0938,-0.0984,-0.0999,-0.1004,-0.1074,-0.1019,-0.1022,-0.1025,-0.1027,-0.1195,-0.1197,0,0,0,0,0,0,-0.0836,-0.0846,-0.093,-0.0933,-0.0871,-0.0909,-0.0915,-0.0936,-0.0967,-0.097,-0.0939,-0.0937,-0.0993,-0.1,-0.1006,-0.1082,-0.1023,-0.1027,-0.1029,-0.1193,-0.1196,-0.1198,0,0,0,0,0,0,-0.0833,-0.0844,-0.0928,-0.0889,-0.0899,-0.0913,-0.0937,-0.0938,-0.0953,-0.0972,-0.0974,-0.0953,-0.0992,-0.1001,-0.1053,-0.1083,-0.1029,-0.1032,-0.1191,-0.1194,-0.1197,-0.1232,0,0,0,0,0,0,-0.083,-0.0843,-0.0866,-0.089,-0.0901,-0.0972,-0.0938,-0.094,-0.096,-0.0957,-0.0985,-0.0988,-0.0991,-0.1047,-0.1057,-0.1088,-0.1036,-0.1188,-0.1192,-0.1196,-0.1228,-0.1236,-0.1242,0,0,0,0,0,-0.0826,-0.0874,-0.0867,-0.0877,-0.093,-0.0974,-0.0981,-0.0983,-0.0962,-0.0986,-0.0998,-0.0987,-0.1078,-0.1052,-0.1063,-0.1096,-0.1186,-0.1191,-0.1196,-0.1225,-0.1234,-0.1242,0,0,0,0,0,0,-0.0856,-0.0877,-0.087,-0.0927,-0.0948,-0.097,-0.1001,-0.0992,-0.1022,-0.1018,-0.102,-0.1026,-0.108,-0.1093,-0.1064,-0.1158,-0.1129,-0.1136,-0.1148,-0.1157,-0.1164,-0.1161,-0.1039,0,0,0,0,0,-0.0868,-0.0901,-0.0918,-0.0967,-0.0978,-0.0987,-0.1007,-0.1006,-0.1029,-0.1039,-0.1054,-0.1078,-0.1112,-0.1135,-0.1167,-0.1229,-0.1236,-0.1257,-0.1264,-0.127,-0.1277,-0.1312,-0.1322,-0.1213,-0.1213,-0.1213,0,0,-0.0896,-0.0912,-0.0932,-0.0973,-0.099,-0.1025,-0.0996,-0.1034,-0.106,-0.1045,-0.1095,-0.1107,-0.1134,-0.1191,-0.1217,-0.1204,-0.1308,-0.1276,-0.128,-0.1284,-0.1318,-0.1328,-0.1337,-0.1216,-0.1216,-0.1215,0,0,-0.0964,-0.0978,-0.1021,-0.1038,-0.1063,-0.1069,-0.1079,-0.1102,-0.1109,-0.1158,-0.1148,-0.1179,-0.1238,-0.1258,-0.1275,-0.1349,-0.1341,-0.136,-0.1398,-0.1432,-0.1441,-0.1449,-0.1477,-0.1487,-0.1366,-0.1366,-0.1366,0,-0.0996,-0.1047,-0.1044,-0.1083,-0.1102,-0.1088,-0.1132,-0.1148,-0.1183,-0.1197,-0.1181,-0.1253,-0.127,-0.1333,-0.1351,-0.1365,-0.1378,-0.1358,-0.1439,-0.1447,-0.1454,-0.1481,-0.1492,-0.1368,-0.1368,-0.1368,-0.1368,0,-0.1085,-0.1121,-0.1152,-0.1185,-0.1207,-0.1248,-0.1253,-0.1276,-0.1272,-0.128,-0.1331,-0.1351,-0.1387,-0.1401,-0.1398,-0.1463,-0.1454,-0.1438,-0.141,-0.1467,-0.1493,-0.1503,-0.1371,-0.1371,-0.137,-0.1369,0,0,-0.1177,-0.1206,-0.1218,-0.1233,-0.1258,-0.1287,-0.1327,-0.1361,-0.1381,-0.1405,-0.144,-0.1489,-0.1474,-0.1494,-0.1494,-0.1523,-0.1583,-0.1504,-0.1505,-0.152,-0.1657,-0.1671,-0.1683,-0.1576,-0.1578,-0.1579,-0.1655,0,-0.1249,-0.132,-0.1318,-0.1384,-0.1417,-0.1403,-0.1438,-0.1459,-0.1466,-0.1497,-0.1505,-0.154,-0.1517,-0.153,-0.1558,-0.1569,-0.1611,-0.1563,-0.1611,-0.1613,-0.1608,-0.1696,-0.171,-0.1782,-0.1665,-0.1667,-0.1668,0,-0.1344,-0.1369,-0.1438,-0.1459,-0.1473,-0.1505,-0.1536,-0.1564,-0.1587,-0.159,-0.1612,-0.1606,-0.1649,-0.1617,-0.1676,-0.1644,-0.1663,-0.1671,-0.1674,-0.1681,-0.1646,-0.1708,-0.1804,-0.1816,-0.1683,-0.1682,-0.1681,0,-0.1406,-0.1458,-0.1506,-0.1519,-0.1543,-0.1566,-0.1578,-0.1598,-0.1619,-0.1646,-0.1659,-0.1691,-0.1709,-0.1735,-0.1738,-0.1714,-0.1798,-0.1766,-0.1804,-0.1805,-0.1826,-0.1825,-0.1929,-0.1833,-0.1833,-0.1833,-0.1832,0,-0.1489,-0.1533,-0.1535,-0.1565,-0.1613,-0.161,-0.1658,-0.1668,-0.1686,-0.1719,-0.1707,-0.1738,-0.174,-0.1772,-0.1774,-0.1824,-0.1832,-0.1837,-0.1838,-0.184,-0.184,-0.1855,-0.1851,-0.1836,-0.1835,-0.1834,-0.1834,0,-0.1569,-0.1572,-0.1623,-0.1641,-0.1647,-0.1682,-0.1698,-0.1727,-0.1733,-0.1774,-0.1783,-0.1793,-0.183,-0.1835,-0.1878,-0.188,-0.1941,-0.1935,-0.1933,-0.1933,-0.1972,-0.1969,-0.2092,-0.2109,-0.1999,-0.2,-0.2001,0,-0.1623,-0.1656,-0.1677,-0.1697,-0.1709,-0.1742,-0.1762,-0.176,-0.1782,-0.181,-0.1836,-0.1871,-0.19,-0.1959,-0.1971,-0.2004,-0.2001,-0.2042,-0.2006,-0.2007,-0.2005,-0.2004,-0.2008,-0.205,-0.2051,-0.2052,-0.2053,0,-0.172,-0.1719,-0.1748,-0.1777,-0.1801,-0.1824,-0.1846,-0.1864,-0.1865,-0.189,-0.1926,-0.1948,-0.1992,-0.2028,-0.206,-0.2073,-0.2064,-0.2063,-0.2074,-0.2078,-0.2076,-0.208,-0.1955,-0.2061,-0.206,-0.206,-0.2059,-0.2059,-0.179,-0.1819,-0.1838,-0.187,-0.1886,-0.1907,-0.1935,-0.1943,-0.1973,-0.2008,-0.2004,-0.2045,-0.2067,-0.2109,-0.2124,-0.2157,-0.2144,-0.216,-0.2164,-0.2169,-0.2174,-0.2068,-0.2163,-0.2163,-0.2163,-0.2162,-0.2162,0,-0.1888,-0.1899,-0.1929,-0.1959,-0.1985,-0.197,-0.1994,-0.2017,-0.2053,-0.2073,-0.21,-0.2143,-0.2177,-0.219,-0.2224,-0.2248,-0.2245,-0.2257,-0.2257,-0.2261,-0.2182,-0.2171,-0.2259,-0.2259,-0.2259,-0.2259,-0.2259,-0.2259,-0.1942,-0.1991,-0.1992,-0.2048,-0.2059,-0.2098,-0.2113,-0.2132,-0.2148,-0.2195,-0.2223,-0.2231,-0.2248,-0.2283,-0.2314,-0.2317,-0.2332,-0.2347,-0.2348,-0.2276,-0.2266,-0.2257,-0.2246,-0.2349,-0.2349,-0.2424,-0.2425,-0.2425]},{"header":{"parameterUnit":"m.s-1","parameterCategory":1,"la1":30.2991,"la2":30.254,"lo1":-89.0895,"lo2":-89.0444,"dy":0.0017,"dx":0.0017,"nx":28,"ny":28,"refTime":"2023-11-04T09:00:00:Z","depth":0,"parameterNumber":3,"parameterNumberName":"V-component_of_WINDS"},"data":[0,0,0,0,0,0,0,0,0,0,0,0,0,0,0,0,0,0,0,0,0,0,0,0,0,0,0,0,0,0,0,0,0,0,0,0,0,0,0,0,0,0,0,0,0,0,0,0,0,0,0,0,0,0,0,0,0,0,-2.4397,-2.4398,0,-2.451,-2.4512,-2.4513,-2.4534,-2.4533,-2.4532,-2.4531,-2.4646,-2.4649,-2.4653,0,0,0,0,0,0,0,0,0,0,0,0,0,-2.4196,-2.4199,-2.4396,-2.4398,-2.4399,-2.451,-2.4512,-2.4513,-2.4534,-2.4533,-2.4532,-2.4531,-2.4644,-2.4649,-2.4654,0,0,0,0,0,0,0,0,0,0,0,0,0,-2.4294,-2.42,-2.4396,-2.4423,-2.4427,-2.451,-2.4512,-2.4514,-2.4534,-2.4533,-2.4532,-2.453,-2.4643,-2.4648,-2.4654,-2.4718,0,0,-2.4672,-2.4675,0,0,0,0,0,0,0,0,-2.4288,-2.4301,-2.4418,-2.4421,-2.4425,-2.4507,-2.4483,-2.4582,-2.4535,-2.4493,-2.4531,-2.453,-2.46,-2.461,-2.4634,-2.4723,-2.4728,-2.4673,-2.4676,-2.4679,-2.468,0,0,0,0,0,0,0,-2.4281,-2.4296,-2.4441,-2.4419,-2.4424,-2.4429,-2.4441,-2.4502,-2.4553,-2.4497,-2.4499,-2.4512,-2.4602,-2.4628,-2.4637,-2.473,-2.4672,-2.4678,-2.4681,-2.4684,-2.4878,-2.488,0,0,0,0,0,0,-2.427,-2.429,-2.4438,-2.4445,-2.4352,-2.4434,-2.4448,-2.4482,-2.4553,-2.4562,-2.4513,-2.4513,-2.4619,-2.463,-2.4641,-2.4721,-2.4679,-2.4684,-2.4688,-2.4877,-2.4879,-2.4881,0,0,0,0,0,0,-2.4265,-2.4283,-2.4433,-2.4368,-2.4388,-2.4439,-2.4477,-2.4485,-2.4511,-2.4565,-2.4574,-2.453,-2.4618,-2.4633,-2.4699,-2.4725,-2.4687,-2.4692,-2.4875,-2.4877,-2.488,-2.488,0,0,0,0,0,0,-2.426,-2.4281,-2.4306,-2.4369,-2.4391,-2.449,-2.4479,-2.4488,-2.4521,-2.4522,-2.4583,-2.4592,-2.4618,-2.469,-2.4705,-2.4732,-2.4697,-2.4873,-2.4876,-2.4879,-2.4878,-2.4882,-2.4886,0,0,0,0,0,-2.4252,-2.4301,-2.4307,-2.4325,-2.4423,-2.4491,-2.4504,-2.4534,-2.4523,-2.4549,-2.4584,-2.459,-2.472,-2.4697,-2.4714,-2.4743,-2.4871,-2.4875,-2.4879,-2.4876,-2.4882,-2.4886,0,0,0,0,0,0,-2.4239,-2.431,-2.4317,-2.4388,-2.4434,-2.4495,-2.4528,-2.4538,-2.4587,-2.4586,-2.462,-2.4633,-2.4698,-2.4727,-2.47,-2.4809,-2.4795,-2.4802,-2.4787,-2.4793,-2.4797,-2.4788,-2.4702,0,0,0,0,0,-2.4244,-2.4294,-2.4353,-2.4409,-2.4432,-2.4476,-2.4507,-2.4526,-2.4574,-2.4593,-2.4633,-2.4679,-2.473,-2.4763,-2.4813,-2.4883,-2.4896,-2.4911,-2.4915,-2.4918,-2.4924,-2.4963,-2.497,-2.4893,-2.4893,-2.4893,0,0,-2.4256,-2.43,-2.433,-2.4408,-2.4446,-2.4496,-2.4492,-2.4545,-2.4583,-2.4601,-2.4667,-2.4697,-2.4751,-2.482,-2.4852,-2.4846,-2.4949,-2.4923,-2.4925,-2.4929,-2.4968,-2.4975,-2.4982,-2.4895,-2.4895,-2.4895,0,0,-2.4302,-2.4341,-2.4393,-2.4431,-2.4489,-2.4518,-2.453,-2.459,-2.4612,-2.4678,-2.4693,-2.4738,-2.4826,-2.4864,-2.4894,-2.4957,-2.4965,-2.4972,-2.4993,-2.5031,-2.5037,-2.5042,-2.5064,-2.5072,-2.4978,-2.4978,-2.4978,0,-2.4308,-2.4386,-2.4417,-2.4471,-2.4505,-2.4525,-2.4577,-2.4613,-2.4683,-2.4706,-2.4699,-2.481,-2.4848,-2.4926,-2.4941,-2.4965,-2.498,-2.4965,-2.5033,-2.5039,-2.5045,-2.5066,-2.5075,-2.4978,-2.4978,-2.4978,-2.4978,0,-2.4391,-2.4444,-2.4479,-2.4548,-2.4586,-2.4638,-2.4678,-2.4713,-2.4729,-2.4758,-2.4826,-2.4872,-2.4932,-2.4952,-2.4968,-2.5033,-2.5028,-2.5027,-2.5013,-2.5052,-2.5073,-2.5081,-2.4979,-2.4979,-2.4979,-2.4978,0,0,-2.443,-2.4518,-2.453,-2.4561,-2.4627,-2.4669,-2.4722,-2.4782,-2.4811,-2.486,-2.4905,-2.498,-2.498,-2.5015,-2.5035,-2.5068,-2.5115,-2.5063,-2.5065,-2.5071,-2.5189,-2.5189,-2.5198,-2.5121,-2.5123,-2.5124,-2.5184,0,-2.4484,-2.4581,-2.4612,-2.4693,-2.4742,-2.4763,-2.481,-2.4855,-2.4885,-2.4931,-2.4963,-2.5015,-2.5011,-2.5033,-2.5067,-2.5102,-2.5139,-2.5098,-2.5163,-2.5165,-2.5148,-2.5209,-2.5209,-2.5263,-2.5193,-2.5194,-2.5195,0,-2.456,-2.4611,-2.4696,-2.4757,-2.4779,-2.482,-2.4878,-2.4922,-2.4974,-2.4993,-2.5033,-2.5051,-2.5108,-2.5092,-2.517,-2.5142,-2.517,-2.5192,-2.5195,-2.5201,-2.5182,-2.5216,-2.5281,-2.5289,-2.5208,-2.5207,-2.5206,0,-2.458,-2.467,-2.4733,-2.4759,-2.4831,-2.486,-2.4891,-2.4942,-2.4976,-2.5027,-2.5049,-2.5105,-2.5136,-2.5179,-2.5211,-2.5197,-2.5287,-2.5273,-2.5304,-2.5303,-2.5321,-2.5319,-2.5391,-2.5341,-2.534,-2.534,-2.534,0,-2.4636,-2.4688,-2.4743,-2.4781,-2.484,-2.4875,-2.4932,-2.4965,-2.501,-2.5055,-2.5076,-2.5118,-2.5159,-2.5206,-2.5232,-2.5293,-2.5307,-2.5324,-2.533,-2.5321,-2.5319,-2.534,-2.5337,-2.5342,-2.5342,-2.5342,-2.5341,0,-2.4668,-2.4707,-2.4777,-2.484,-2.4857,-2.4898,-2.4952,-2.499,-2.5021,-2.5078,-2.5093,-2.5142,-2.5199,-2.5236,-2.5308,-2.5326,-2.5392,-2.5397,-2.5374,-2.5377,-2.5406,-2.5402,-2.5492,-2.5506,-2.5447,-2.5447,-2.5448,0,-2.4701,-2.4741,-2.4809,-2.4842,-2.4873,-2.4925,-2.496,-2.4997,-2.5033,-2.5096,-2.5127,-2.5185,-2.5234,-2.5324,-2.5365,-2.542,-2.5427,-2.5455,-2.5435,-2.5426,-2.5427,-2.5424,-2.5428,-2.5457,-2.5458,-2.5458,-2.5459,0,-2.4755,-2.4773,-2.4824,-2.4882,-2.4924,-2.4971,-2.5018,-2.5043,-2.5088,-2.5127,-2.5186,-2.5224,-2.5299,-2.5356,-2.5416,-2.5448,-2.5461,-2.5465,-2.5475,-2.5466,-2.5451,-2.5459,-2.5382,-2.5462,-2.5462,-2.5462,-2.5461,-2.5461,-2.4789,-2.4826,-2.488,-2.4936,-2.4975,-2.5019,-2.5059,-2.5095,-2.5145,-2.5209,-2.5228,-2.5289,-2.5341,-2.5423,-2.5456,-2.5504,-2.5501,-2.5515,-2.5519,-2.5522,-2.5522,-2.5444,-2.5515,-2.5515,-2.5515,-2.5515,-2.5515,0,-2.4844,-2.488,-2.4931,-2.4997,-2.5041,-2.5051,-2.5104,-2.514,-2.5194,-2.5242,-2.529,-2.5358,-2.5414,-2.5461,-2.5519,-2.5549,-2.5556,-2.5563,-2.5561,-2.5568,-2.5521,-2.5507,-2.5556,-2.5556,-2.5556,-2.5556,-2.5556,-2.5556,-2.4878,-2.4941,-2.4966,-2.5049,-2.5085,-2.5146,-2.5175,-2.5216,-2.5254,-2.533,-2.5377,-2.5407,-2.5455,-2.5517,-2.5569,-2.5581,-2.5601,-2.5607,-2.562,-2.5576,-2.5571,-2.5566,-2.5553,-2.5611,-2.5611,-2.5662,-2.5663,-2.5663]}]]